loading
|

WESTFORD NEEDLES, 2364

Orbit data source: Space-Track

WESTFORD NEEDLES, 2364 is space debris originally from a launch on Thu, 09 May 1963 UTC launched from the Air Force Western Test Range (AFWTR). Debris objects in space refer to the collection of defunct objects orbiting the Earth. Examples of debris include non-operational satellites, rocket bodies, and fragments generated from explosions, collisions, or faulty payload assembly.

Loading next visibility...
Loading greatness...
WESTFORD NEEDLES details
Identifier
2364, 1963-014P
Orbit
Active
Last TLE update22 hours ago
Origin
Flag of USUSAF SSD (US)
ManufacturerUnknown
MissionSpacecraft
Bus & MotorUnknown bus, Unknown motor
MassUnknown
Launch date (UTC)
1963-05-09 (61 years ago)
Launch vehicleUnknown
Launch site
Air Force Western Test Range (AFWTR)
Object type
Payload
Rocket body
Debris
Shape & HBRUnknown
Radar Cross SectionMedium (>0.1 m² and <1 m²)

Expand to show TLE details & history

TLE from 22 hours ago
0 WESTFORD NEEDLES
1 02364U 63014P   24284.11403774  .00000250  00000-0  90389-1 0  9993
2 02364  87.5766 336.3060 0676219 320.2580  35.0553  8.67486897942636
Epoch: 2024-10-10T02:44Z
Definitive object data (Epoch: 2024-10-10T02:44:12.86Z)
Latitude-0.0001°
Longitude-83.95082°
Altitude3,091.829 km
Speed6.661 km/s
True Right ascension22h 25m 13s
True Declination0° 00' 00"
Sunlit
Object was in full shadow at TLE epoch
Predictive object data (real-time)
Latitude-84.48623°
Longitude-109.91694°
Altitude3,150.509 km
Speed6.631 km/s
Apparent Right ascension06h 11m 44s
Apparent Declination-72° 59' 57"
Sunlit
Object is in daylight
Predictive observer data (real-time)
Local Sidereal Time18:37:52
Azimuth176.52° S
Elevation-56.764°
Doppler factor1
Orbital elements
Apogee4,301.307 km
Perigee2,948.46 km
Semi-major axis10,003.02 km
Eccentricity0.0676219
Inclination87.5766°
RAAN336.306°
Arg. of periapsis320.258°
True anomaly39.83021°
Mean anomaly35.0553°
Eccentric anomaly37.40903°
Mean motion2.16943 °/min
BSTAR0.090389
Period165.94 mins
No data available

WESTFORD NEEDLES Visibility forecast

Observer location: 39.9160978°, -105.1181434

WESTFORD NEEDLES is not visible in the next 10 days
Span
Click to sort rows by Start time (UTC) header in descending order
Start Az.
Max El. time (UTC)
Max El. Az.
Max El.
End time (UTC)
End Az.